Torna al catalogo

HOTBIRD 13G

AttivoComunicazioniGEO
NORAD 54225·PAYLOAD·🇪🇺 EU

Lanciato Nov 3, 2022 da Cape Canaveral Space Force Station

Loading…

TLE

AggiornatoSource: Space-Track

Epoca: Sep 14, 2026, 13:51 UTC

1 54225U 22146A   26257.57770103  .00000079  00000-0  00000-0 0  9991
2 54225   0.0508 235.0558 0002069 301.3331  38.1367  1.00273434  8361

Traccia HOTBIRD 13G in tempo reale con AllMySat

Download on the App Store